Regional Weather Roundup
Issued by NWS

Home | Current Version | Previous Version | Text Only | Print | Product List | Glossary Off
Versions: 1 2 3 4 5 6 7 8 9 10 11 12 13 14 15 16 17 18 19 20 21 22 23 24 25 26 27 28 29 30 31 32 33 34 35 36 37 38 39 40 41 42 43 44 45 46 47 48 49 50

772
ASUS43 KFSD 230402
RWRSD

WEATHER ROUNDUP FOR SOUTH DAKOTA
NATIONAL WEATHER SERVICE SIOUX FALLS SD
1100 PM CDT THU JUN 22 2017

NOTE: "FAIR" INDICATES FEW OR NO CLOUDS BELOW 12,000 FEET WITH NO
SIGNIFICANT WEATHER AND/OR OBSTRUCTIONS TO VISIBILITY.


SDZ001>005-009-010-012>017-230500-
NORTHWEST AND NORTH CENTRAL SOUTH DAKOTA

CITY           SKY/WX    TMP DP  RH WIND       PRES   REMARKS
BUFFALO          N/A     57  40  52 NW30G38   30.02R
FAITH            N/A     61  35  37 NW18G28   30.01R
MOBRIDGE       CLEAR     66  34  30 NW13      29.88R
$$

SDZ012>016-024>037-041>051-057-063-072>074-230500-
SOUTHWEST AND SOUTH CENTRAL SOUTH DAKOTA

CITY           SKY/WX    TMP DP  RH WIND       PRES   REMARKS
RAPID CTY ARPT PTCLDY    64  34  32 N17       30.04R
PIERRE         PTCLDY    62  42  47 NW12      29.90R
CUSTER         CLOUDY    57  32  38 N10G21    30.13R
ELLSWORTH AFB  MOCLDY    65  34  31 N16       30.04R
PHILIP         CLEAR     60  36  40 NW10      29.97R
PINE RIDGE     CLOUDY    61  49  64 CALM      30.02R
SPEARFISH      CLOUDY    61  34  36 NW10      30.11R
WINNER         FAIR      66  45  46 CALM      29.92R
$$

SDZ004>011-016>023-039-040-230500-
NORTHEAST SOUTH DAKOTA

CITY           SKY/WX    TMP DP  RH WIND       PRES   REMARKS
ABERDEEN       CLOUDY    60  48  64 SW7       29.83R
WATERTOWN      CLEAR     61  55  81 W8        29.83R
BROOKINGS      CLEAR     60  53  77 SW5       29.85S
SISSETON         N/A     63  46  54 SW8       29.78S
$$

SDZ017-020-022-023-036>040-048>070-230500-
SOUTHEAST SOUTH DAKOTA

CITY           SKY/WX    TMP DP  RH WIND       PRES   REMARKS
SIOUX FALLS    CLEAR     60  52  74 NW5       29.84S
HURON          CLEAR     65  54  67 SW9       29.85R
CHAMBERLAIN    CLEAR     65  51  62 W5        29.89R
MITCHELL       CLEAR     65  53  65 SW5       29.86R
YANKTON        CLEAR     63  53  70 NW6       29.87R
$$

ABBREVIATIONS USED IN REMARKS
   TC - TEMPERATURE IN CELSIUS
  WCI - WIND CHILL INDEX
   HX - HEAT INDEX
  VSB - VISIBILITY





USA.gov is the U.S. government's official web portal to all federal, state and local government web resources and services.